| time (UTC) | temp F | wind direction | speed MPH | gust MPH | rain 1hr in | rain 24hr in | rain mn in | humidity % | barometer mb |
| 20260906083016 | 70 | 0.0 | 3.0 | 0.00 | 0.00 | 0.00 | 93 | 1015.3 | |
| 20260906081515 | 70 | 0.0 | 3.0 | 0.00 | 0.00 | 0.00 | 93 | 1015.2 | |
| 20260906080012 | 70 | 0.0 | 4.0 | 0.00 | 0.00 | 0.00 | 93 | 1015.3 | |
| 20260906074511 | 70 | 0.0 | 4.0 | 0.00 | 0.00 | 0.00 | 93 | 1015.2 | |
| 20260906073017 | 70 | 0.0 | 3.0 | 0.00 | 0.00 | 0.00 | 93 | 1015.0 | |
| 20260906071509 | 71 | 0.0 | 3.0 | 0.00 | 0.00 | 0.00 | 93 | 1015.0 | |
| 20260906070008 | 71 | 0.0 | 4.0 | 0.00 | 0.00 | 0.00 | 92 | 1015.2 | |
| 20260906064507 | 71 | 0.0 | 2.0 | 0.00 | 0.00 | 0.00 | 92 | 1015.3 | |
| 20260906063006 | 71 | 0.0 | 4.0 | 0.00 | 0.00 | 0.00 | 92 | 1015.1 | |
| 20260906061504 | 71 | 0.0 | 5.0 | 0.00 | 0.00 | 0.00 | 91 | 1015.0 | |
| 20260906060001 | 71 | 0.0 | 6.0 | 0.00 | 0.00 | 0.00 | 91 | 1014.9 | |
| 20260906054609 | 72 | 0.0 | 6.0 | 0.00 | 0.00 | 0.00 | 91 | 1014.7 | |
| 20260906053057 | 72 | 0.0 | 6.0 | 0.00 | 0.00 | 0.00 | 90 | 1014.5 | |
| 20260906051605 | 72 | 0.0 | 11.0 | 0.00 | 0.00 | 0.00 | 90 | 1014.5 | |
| 20260906050104 | 72 | 0.0 | 8.0 | 0.00 | 0.00 | 0.00 | 91 | 1014.3 | |
| 20260906044559 | 72 | 0.0 | 10.0 | 0.00 | 0.00 | 0.00 | 92 | 1014.3 | |
| 20260906043052 | 73 | 0.0 | 10.0 | 0.00 | 0.00 | 0.00 | 93 | 1014.1 | |
| 20260906041551 | 73 | 0.0 | 8.0 | 0.00 | 0.00 | 0.00 | 93 | 1014.0 | |
| 20260906040100 | 73 | 0.0 | 9.0 | 0.00 | 0.00 | 0.00 | 94 | 1013.9 | |
| 20260906034551 | 73 | 0.0 | 7.0 | 0.00 | 0.00 | 0.00 | 93 | 1013.8 | |
| 20260906033050 | 73 | 0.0 | 4.0 | 0.00 | 0.00 | 0.00 | 93 | 1013.7 | |
| 20260906031549 | 73 | 0.0 | 5.0 | 0.00 | 0.00 | 0.00 | 93 | 1013.7 | |
| 20260906030048 | 72 | 0.0 | 7.0 | 0.00 | 0.00 | 0.00 | 92 | 1013.7 | |
| 20260906024551 | 72 | 0.0 | 6.0 | 0.00 | 0.00 | 0.00 | 92 | 1013.8 | |
| 20260906023046 | 72 | 0.0 | 7.0 | 0.00 | 0.00 | 0.00 | 91 | 1013.9 | |
| 20260906021546 | 72 | 0.0 | 7.0 | 0.00 | 0.00 | 0.00 | 91 | 1014.0 | |
| 20260906020044 | 72 | 0.0 | 6.0 | 0.00 | 0.00 | 0.00 | 90 | 1014.0 | |
| 20260906014607 | 73 | 0.0 | 8.0 | 0.00 | 0.00 | 0.00 | 90 | 1013.7 | |
| 20260906013046 | 73 | 0.0 | 7.0 | 0.00 | 0.00 | 0.00 | 89 | 1013.3 | |
| 20260906011540 | 73 | 0.0 | 9.0 | 0.00 | 0.00 | 0.00 | 89 | 1013.1 | |
| 20260906010037 | 74 | 0.0 | 12.0 | 0.00 | 0.00 | 0.00 | 89 | 1013.3 | |
| 20260906004534 | 74 | 0.0 | 13.0 | 0.00 | 0.00 | 0.00 | 88 | 1013.1 | |
| 20260906003033 | 74 | 0.0 | 10.0 | 0.00 | 0.00 | 0.00 | 87 | 1013.1 | |
| 20260906001532 | 74 | 0.0 | 14.0 | 0.00 | 0.00 | 0.00 | 87 | 1012.9 | |
| 20260906000028 | 75 | 0.0 | 15.0 | 0.00 | 0.00 | 0.00 | 87 | 1012.6 | |
| 20260905234527 | 75 | 0.0 | 13.0 | 0.00 | 0.00 | 0.00 | 86 | 1012.6 | |
| 20260905233027 | 76 | 0.0 | 14.0 | 0.00 | 0.00 | 0.00 | 86 | 1012.6 | |
| 20260905231526 | 76 | 0.0 | 13.0 | 0.00 | 0.00 | 0.00 | 84 | 1012.6 | |
| 20260905230025 | 77 | 0.0 | 16.0 | 0.00 | 0.00 | 0.00 | 82 | 1012.5 | |
| 20260905224523 | 79 | 0.0 | 16.0 | 0.00 | 0.00 | 0.00 | 80 | 1012.5 | |
| 20260905223023 | 80 | 0.0 | 15.0 | 0.00 | 0.00 | 0.00 | 79 | 1012.4 | |
| 20260905221522 | 80 | 0.0 | 18.0 | 0.00 | 0.00 | 0.00 | 78 | 1012.3 | |
| 20260905220021 | 81 | 0.0 | 16.0 | 0.00 | 0.00 | 0.00 | 77 | 1012.2 | |
| 20260905214525 | 83 | 0.0 | 17.0 | 0.00 | 0.00 | 0.00 | 74 | 1012.1 | |
| 20260905213020 | 84 | 0.0 | 15.0 | 0.00 | 0.00 | 0.00 | 74 | 1012.1 | |
| 20260905211532 | 84 | 0.0 | 13.0 | 0.00 | 0.00 | 0.00 | 73 | 1011.9 | |
| 20260905210020 | 85 | 0.0 | 15.0 | 0.00 | 0.00 | 0.00 | 73 | 1011.9 | |
| 20260905204526 | 86 | 0.0 | 15.0 | 0.00 | 0.00 | 0.00 | 72 | 1011.9 | |
| 20260905203018 | 87 | 0.0 | 14.0 | 0.00 | 0.00 | 0.00 | 71 | 1011.8 | |
| 20260905201517 | 87 | 0.0 | 14.0 | 0.00 | 0.00 | 0.00 | 71 | 1011.9 | |
| 20260905200019 | 87 | 0.0 | 12.0 | 0.00 | 0.00 | 0.00 | 71 | 1011.9 | |
| 20260905194516 | 87 | 0.0 | 15.0 | 0.00 | 0.00 | 0.00 | 71 | 1011.8 | |
| 20260905193016 | 87 | 0.0 | 14.0 | 0.00 | 0.00 | 0.00 | 72 | 1011.9 | |
| 20260905191515 | 87 | 0.0 | 16.0 | 0.00 | 0.00 | 0.00 | 72 | 1011.9 | |
| 20260905190014 | 87 | 0.0 | 15.0 | 0.00 | 0.00 | 0.00 | 73 | 1011.9 | |
| 20260905184513 | 88 | 0.0 | 14.0 | 0.00 | 0.00 | 0.00 | 73 | 1011.9 | |
| 20260905183009 | 87 | 0.0 | 11.0 | 0.00 | 0.00 | 0.00 | 75 | 1011.8 | |
| 20260905181508 | 86 | 0.0 | 14.0 | 0.00 | 0.00 | 0.00 | 77 | 1011.9 | |
| 20260905180009 | 86 | 0.0 | 12.0 | 0.00 | 0.00 | 0.00 | 79 | 1011.9 | |
| 20260905174505 | 86 | 0.0 | 8.0 | 0.00 | 0.00 | 0.00 | 79 | 1011.8 | |
| 20260905173005 | 86 | 0.0 | 9.0 | 0.00 | 0.00 | 0.00 | 80 | 1011.9 | |
| 20260905171502 | 85 | 0.0 | 8.0 | 0.00 | 0.00 | 0.00 | 82 | 1012.0 | |
| 20260905170002 | 85 | 0.0 | 8.0 | 0.00 | 0.00 | 0.00 | 84 | 1012.2 | |
| 20260905164600 | 85 | 0.0 | 9.0 | 0.00 | 0.00 | 0.00 | 83 | 1012.3 | |
| 20260905163059 | 85 | 0.0 | 10.0 | 0.00 | 0.00 | 0.00 | 84 | 1012.3 | |
| 20260905161604 | 85 | 0.0 | 8.0 | 0.00 | 0.00 | 0.00 | 84 | 1012.2 | |
| 20260905160058 | 85 | 0.0 | 9.0 | 0.00 | 0.00 | 0.00 | 85 | 1012.3 | |
| 20260905154613 | 85 | 0.0 | 7.0 | 0.00 | 0.00 | 0.00 | 85 | 1012.2 | |
| 20260905153053 | 84 | 0.0 | 7.0 | 0.00 | 0.00 | 0.00 | 86 | 1012.0 | |
| 20260905151600 | 84 | 0.0 | 8.0 | 0.00 | 0.00 | 0.00 | 85 | 1012.0 | |
| 20260905150049 | 84 | 0.0 | 10.0 | 0.00 | 0.00 | 0.00 | 87 | 1011.9 | |
| 20260905144546 | 83 | 0.0 | 7.0 | 0.00 | 0.00 | 0.00 | 91 | 1011.4 | |
| 20260905143042 | 81 | 0.0 | 4.0 | 0.00 | 0.00 | 0.00 | 95 | 1011.4 | |
| 20260905141538 | 80 | 0.0 | 5.0 | 0.00 | 0.00 | 0.00 | 96 | 1011.6 | |
| 20260905140036 | 79 | 0.0 | 5.0 | 0.00 | 0.00 | 0.00 | 97 | 1011.9 | |
| 20260905134536 | 79 | 0.0 | 3.0 | 0.00 | 0.00 | 0.00 | 97 | 1011.8 | |
| 20260905133032 | 79 | 0.0 | 3.0 | 0.00 | 0.00 | 0.00 | 97 | 1011.7 | |
| 20260905131528 | 78 | 0.0 | 0.0 | 0.00 | 0.00 | 0.00 | 97 | 1011.4 | |
| 20260905130026 | 77 | 0.0 | 0.0 | 0.00 | 0.00 | 0.00 | 98 | 1011.4 | |
| 20260905124526 | 76 | 0.0 | 0.0 | 0.00 | 0.00 | 0.00 | 97 | 1011.2 | |
| 20260905123022 | 76 | 0.0 | 6.0 | 0.00 | 0.00 | 0.00 | 97 | 1011.2 | |
| 20260905121525 | 75 | 0.0 | 2.0 | 0.00 | 0.00 | 0.00 | 97 | 1011.0 | |
| 20260905120026 | 75 | 0.0 | 0.0 | 0.00 | 0.00 | 0.00 | 97 | 1010.7 | |
| 20260905114520 | 74 | 0.0 | 0.0 | 0.00 | 0.00 | 0.00 | 97 | 1010.7 | |
| 20260905113020 | 74 | 0.0 | 0.0 | 0.00 | 0.00 | 0.00 | 97 | 1010.7 | |
| 20260905111521 | 74 | 0.0 | 0.0 | 0.00 | 0.00 | 0.00 | 97 | 1010.6 | |
| 20260905110020 | 75 | 0.0 | 0.0 | 0.00 | 0.00 | 0.00 | 97 | 1010.5 | |
| 20260905104519 | 74 | 0.0 | 1.0 | 0.00 | 0.00 | 0.00 | 96 | 1010.6 | |
| 20260905103018 | 74 | 0.0 | 1.0 | 0.00 | 0.00 | 0.00 | 96 | 1010.6 | |
| 20260905101522 | 75 | 0.0 | 1.0 | 0.00 | 0.00 | 0.00 | 96 | 1010.7 | |
| 20260905100018 | 75 | 0.0 | 3.0 | 0.00 | 0.00 | 0.00 | 96 | 1010.7 | |
| 20260905094515 | 75 | 0.0 | 2.0 | 0.00 | 0.00 | 0.00 | 96 | 1010.8 | |
| 20260905093013 | 75 | 0.0 | 0.0 | 0.00 | 0.00 | 0.00 | 96 | 1010.7 | |
| 20260905091514 | 75 | 0.0 | 0.0 | 0.00 | 0.00 | 0.00 | 96 | 1010.6 | |
| 20260905090015 | 75 | 0.0 | 0.0 | 0.00 | 0.00 | 0.00 | 96 | 1010.8 | |
| 20260905084513 | 75 | 0.0 | 0.0 | 0.00 | 0.00 | 0.00 | 96 | 1010.9 |